Location: Unspecified
(0.0000°N, 0.0000°E)
Time: 07:55:29
(UTC+00:00)

STARLINK-6154 - Visible Passes

Search period start: 22 July 2024 00:00
Search period end: 01 August 2024 00:00
Orbit: 558 x 560 km, 43.0° (Epoch: 22 July)

Date Brightness Start Highest point End Pass type
(mag) Time Alt. Az. Time Alt. Az. Time Alt. Az.
25 Jul ? 19:24:43 10° S 19:25:28 13° S 19:25:28 13° S visible
26 Jul ? 19:20:54 10° SSW 19:24:22 35° SSE 19:24:22 35° SSE visible
27 Jul ? 19:17:22 10° SW 19:21:33 64° SE 19:23:38 28° ENE visible
28 Jul ? 19:14:04 10° SW 19:18:16 71° NW 19:22:26 10° NE visible
29 Jul ? 05:34:18 10° NNE 05:36:01 12° NE 05:37:44 10° ENE visible
29 Jul ? 19:10:59 10° WSW 19:14:56 39° NW 19:18:52 10° NNE visible
30 Jul ? 05:29:34 10° N 05:32:43 20° NE 05:35:52 10° E visible
30 Jul ? 19:08:13 10° W 19:11:34 23° NW 19:14:56 10° N visible
31 Jul ? 05:25:31 10° NNW 05:29:20 34° NE 05:33:11 10° ESE visible
31 Jul ? 19:05:59 10° WNW 19:08:12 14° NW 19:10:24 10° NNW visible
